Location: Eimen
(51.8766°N, 9.7806°E)
Time: 07:43:45
(UTC+00:00)

Envisat - Pass Details

Date: 19 August 2024
Orbit: 762 x 764 km, 98.3° (Epoch: 08 September)

Event Time Altitude Azimuth Distance (km) Brightness Sun altitude
Rises 01:07:38 0° 28° (NNE) 3,239 7.8 -21.7°
Reaches altitude 10° 01:11:03 10° 52° (NE) 2,307 6.4 -21.5°
Maximum altitude 01:13:50 15° 86° (E) 1,996 5.5 -21.3°
Drops below altitude 10° 01:16:36 10° 119° (ESE) 2,297 5.5 -21.1°
Enters shadow 01:19:06 - 139° (SE) 2,946 5.8 -20.9°
